STARLINK-32181, 60349

Orbit data source: Space-Track

STARLINK-32181, 60349 is a payload satellite owned by SpaceX/Seattle (US) in LEO that was launched on Fri, 02 Aug 2024 UTC via an FALCON 9 launch vehicle from the Air Force Eastern Test Range (AFETR). Payload-class satellites include a variety of spacecraft equipped with specific instruments for various scientific and technological missions. These include communications satellites like Starlink; space stations such as the ISS; scientific satellites like the Hubble; Earth observation satellites from companies like Planet Labs, Umbra, and HawkEye 360; GPS; miniature CubeSats for education and research; and military/defense satellites.

Loading next visibility...
Identifier
60349, 2024-136W
Orbit
LEO
Country
Flag of USUS
Related business
Manufacturer
SpaceX/Seattle
Mission
Operational Commercial Communications
Bus & Motor
STARLINK V2M, Unknown motor
Mass
730 kg wet, ~700 kg dry
Launch date (UTC)
2024-08-02 (1 year ago)
Launch vehicle
FALCON 9
Launch site
Air Force Eastern Test Range (AFETR)
Object type
Payload
Rocket body
Debris
Shape & HBR
Box + 2 Pan, 17.7 m
Radar Cross Section
33.884 m², Large (>1 m²)

Expand to show TLE details & history
Last TLE update: 1 day ago

TLE from 1 day ago
0 STARLINK-32181
1 60349U 24136W   25291.65947241  .00000878  00000-0  41754-4 0  9993
2 60349  53.1601  15.0524 0001068  72.2463 287.8655 15.30197108 67926
Epoch: 2025-10-18T15:49Z
TLE epoch observation values (Epoch: 2025-10-18T15:49:38.416Z)
Latitude
0.00005°
Longitude
110.25506°
Altitude
475.899 km
Speed
7.629 km/s
True Right ascension
01h 00m 12s
True Declination
0° 00' 00"
Sunlit
Object was in full shadow at epoch
Visualization orbit readout
Latitude
Unknown
Longitude
Unknown
Altitude
Unknown
Speed
Unknown
Apparent Right ascension
Unknown
Apparent Declination
Unknown
Sunlit
N/A
Visualization observer readout
Local Sidereal Time
21:42:56
Azimuth
Unknown
Elevation
Unknown
Doppler factor
Unknown
Orbital elements
Apogee altitude
476.212 km
Perigee altitude
474.748 km
Semi-major axis
6,853.617 km
Eccentricity
0.00011
Inclination
53.1601°
RAAN
15.0524°
Arg. of periapsis
72.2463°
True anomaly
287.85385°
Mean anomaly
287.8655°
Eccentric anomaly
287.85968°
Mean motion
3.82528 °/min
Orbital period
94.11 mins
BSTAR
0.000041754
Loading maneuver chart data...
Computing Atmospheric mass density...
Loading historical data...
Loading historical data...
Loading historical data...
Loading historical data...
Loading historical data...
Loading historical data...
Loading historical data...

Documentation

Showing up to 5 results
|